User: anonymous   Login
Location: Unspecified
(32.9624°N, 0.0000°E)
Time: 03:59:52
(UTC+00:00)
Language:

Sep Motor Cover - Orbit

View from above orbital plane
View from above orbital plane
View from above satellite
View from above satellite

Ground track
Ground track

The orbit is defined by the following mean orbital elements,

1 19126U          26088.11986264 +.00000000 +00000-0 +93744-4 0 00004
2 19126  71.0314 223.7035 0181050  72.5280 104.1536 13.77937193    08
Epoch (UTC): 29 March 2026 02:52:36
Eccentricity: 0.0181050
inclination: 71.0314°
perigee height: 838 km
apogee height: 1104 km
right ascension of ascending node: 223.7035°
argument of perigee: 72.5280°
revolutions per day: 13.77937193
mean anomaly at epoch: 104.1536°

The dashed part of the orbit path shows where the satellite is in the earth's shadow,  

DLR